Taunton, MA

11:30 PM EST on January 23, 2018 (GMT -0500)
Taunton Municipal

Weather History for KTAN - April, 2013

Change the Weather History Date:

Sunday, April 14, 2013

  Actual Average Record
Temperature  
Mean Temperature 46 °F -  
Max Temperature 57 °F 56 °F 77 °F (2002)
Min Temperature 36 °F 33 °F 21 °F (1959)
Degree Days  
Heating Degree Days 20    
Moisture  
Dew Point 31 °F    
Average Humidity 67    
Maximum Humidity 89    
Minimum Humidity 31    
Precipitation  
Precipitation 0.00 in - - ()
Sea Level Pressure  
Sea Level Pressure 30.00 in    
Wind  
Wind Speed 3 mph (WNW)    
Max Wind Speed 15 mph    
Max Gust Speed 26 mph    
Visibility 7 miles    
Events      
Averages and records for this station are not official NWS values.
T = Trace of Precipitation, MM = Missing Value Source: NWS Daily Summary

Daily Weather History Graph

Daily Weather History Graph

Search for Another Location

Airport or City:

Trip Planner

Search our weather history database for the weather conditions in past years. The results will help you decide how hot, cold, wet, or windy it might be!

Date:

Astronomy

Apr. 14, 2013 Rise Set
Actual Time 6:05 AM EDT 7:24 PM EDT
Civil Twilight 5:36 AM EDT 7:53 PM EDT
Nautical Twilight 5:01 AM EDT 8:27 PM EDT
Astronomical Twilight 4:25 AM EDT 9:04 PM EDT
Moon 8:36 AM EDT (4/14) 11:37 PM EDT (4/14)
Length of Visible Light 14h 16m
Length of Day
13h 19m
Waxing Crescent, 17% of the Moon is Illuminated
Apr 14
Waxing Crescent
Apr 18
First Quarter
Apr 25
Full
May 2
Last Quarter
May 9
New

Hourly Weather History & Observations

Time (EDT) Temp. Windchill Dew Point Humidity Pressure Visibility Wind Dir Wind Speed Gust Speed Precip Events Conditions
12:52 AM 39.9 °F 36.7 °F 36.0 °F 86% 29.94 in 10.0 mi ESE 4.6 mph - N/A   Partly Cloudy
1:07 AM 37.9 °F - 35.1 °F 89% 29.93 in 1.5 mi Calm Calm - N/A   Partly Cloudy
1:10 AM 37.0 °F - 34.0 °F 89% 29.93 in 0.8 mi Calm Calm - N/A   Partly Cloudy
1:29 AM 37.9 °F - 35.1 °F 89% 29.94 in 1.5 mi Calm Calm - N/A   Mostly Cloudy
1:37 AM 37.0 °F - 34.0 °F 89% 29.94 in 1.2 mi Calm Calm - N/A   Mostly Cloudy
1:42 AM 37.9 °F - 34.0 °F 86% 29.94 in 1.8 mi Calm Calm - N/A   Mostly Cloudy
1:52 AM 37.0 °F - 34.0 °F 89% 29.94 in 1.8 mi Calm Calm - N/A   Mostly Cloudy
1:55 AM 37.9 °F - 34.0 °F 86% 29.93 in 3.0 mi Calm Calm - N/A   Mostly Cloudy
2:18 AM 36.0 °F 29.6 °F 33.1 °F 89% 29.94 in 1.8 mi NNW 8.1 mph - N/A   Partly Cloudy
2:27 AM 37.9 °F 35.5 °F 35.1 °F 89% 29.94 in 4.0 mi WNW 3.5 mph - N/A   Partly Cloudy
2:52 AM 37.0 °F - 34.0 °F 89% 29.94 in 9.0 mi Calm Calm - N/A   Partly Cloudy
3:27 AM 37.0 °F - 34.0 °F 89% 29.94 in 2.0 mi Calm Calm - N/A   Mostly Cloudy
3:39 AM 36.0 °F - 33.1 °F 89% 29.94 in 7.0 mi Calm Calm - N/A   Mostly Cloudy
3:52 AM 36.0 °F - 32.0 °F 86% 29.94 in 6.0 mi Calm Calm - N/A   Mostly Cloudy
4:52 AM 37.9 °F - 35.1 °F 89% 29.94 in 5.0 mi Calm Calm - N/A   Overcast
5:52 AM 39.9 °F - 36.0 °F 86% 29.95 in 8.0 mi Calm Calm - N/A   Overcast
6:52 AM 41.0 °F - 37.0 °F 86% 29.96 in 6.0 mi Calm Calm - N/A   Overcast
7:52 AM 45.0 °F 41.8 °F 39.0 °F 80% 29.99 in 10.0 mi WNW 5.8 mph - N/A   Overcast
8:52 AM 48.0 °F - 37.0 °F 66% 29.99 in 10.0 mi West 6.9 mph - N/A   Overcast
9:52 AM 52.0 °F - 37.0 °F 57% 29.99 in 10.0 mi West 9.2 mph - N/A   Scattered Clouds
10:52 AM 53.1 °F - 33.1 °F 47% 29.99 in 10.0 mi West 9.2 mph 21.9 mph N/A   Overcast
11:52 AM 51.1 °F - 32.0 °F 48% 30.00 in 10.0 mi WNW 11.5 mph - N/A   Overcast
12:52 PM 55.0 °F - 30.9 °F 40% 29.99 in 10.0 mi Variable 6.9 mph 18.4 mph 0.00 in   Partly Cloudy
1:52 PM 55.0 °F - 28.9 °F 37% 30.00 in 10.0 mi NW 15.0 mph 26.5 mph N/A   Partly Cloudy
2:52 PM 55.0 °F - 28.9 °F 37% 30.01 in 10.0 mi WNW 10.4 mph 18.4 mph N/A   Overcast
3:52 PM 54.0 °F - 24.1 °F 31% 30.01 in 10.0 mi WNW 11.5 mph 21.9 mph N/A   Overcast
4:52 PM 53.1 °F - 23.0 °F 31% 30.02 in 10.0 mi NW 11.5 mph 17.3 mph N/A   Overcast
5:52 PM 53.1 °F - 23.0 °F 31% 30.05 in 10.0 mi WNW 10.4 mph 20.7 mph N/A   Mostly Cloudy
6:52 PM 50.0 °F - 23.0 °F 35% 30.08 in 10.0 mi NW 8.1 mph 18.4 mph N/A   Mostly Cloudy
7:52 PM 48.0 °F - 21.9 °F 36% 30.12 in 10.0 mi WNW 6.9 mph - N/A   Scattered Clouds
8:52 PM 46.0 °F 43.1 °F 23.0 °F 40% 30.17 in 10.0 mi NW 5.8 mph - N/A   Clear
9:52 PM 44.1 °F 42.5 °F 24.1 °F 45% 30.19 in 10.0 mi West 3.5 mph - N/A   Clear
10:52 PM 37.0 °F - 28.0 °F 70% 30.19 in 10.0 mi Calm Calm - N/A   Clear
11:52 PM 37.9 °F 35.5 °F 26.1 °F 62% 30.22 in 10.0 mi West 3.5 mph - N/A   Clear